Tracking 31028 objects as of 17-Jul-2025
HD Live streaming from Space Station
objects crossing your sky now

SL-18 DEB

Track SL-18 DEB now!
10-day predictions


NORAD ID: 22599
Int'l Code: 1993-014E
Perigee: 637.0 km
Apogee: 818.5 km
Inclination: 75.8 °
Period: 99.2 minutes
Semi major axis: 7098 km
RCS: 0.042 m2 (small)
Launch date: March 25, 1993
Source: Commonwealth of Independent States (former USSR) (CIS)
Launch site: PLESETSK MISSILE AND SPACE COMPLEX (PKMTR)

Note: This is SATELLITE DEBRIS
Your satellite tracking list
Your tracking list is empty




NASA's NSSDC Master Catalog

Two Line Element Set (TLE):
1 22599U 93014E   25197.96391378  .00002658  00000-0  60111-3 0  9997
2 22599  75.7522 162.4200 0127840  29.8212 331.0163 14.51530815690979
Source of the keplerian elements: AFSPC